This is the latest recevied weather packets stored in our database for station/object K2CAT. If no packets are shown the sender has not sent any weather packets the latest 10 day(s).
| Time | Temp. | Humidity | Pressure | Rain* | Wind** | Luminosity | Snow |
|---|---|---|---|---|---|---|---|
| 1777039263 | 10° C | 46% | 1012.3 hPa | 0 mm | - | 189 W/m² | - |
| 1777038962 | 10° C | 45% | 1012.2 hPa | 0 mm | - | 135 W/m² | - |
| 1777038660 | 10° C | 45% | 1012.4 hPa | 0 mm | - | 118 W/m² | - |
| 1777038354 | 10° C | 43% | 1012.3 hPa | 0 mm | - | 201 W/m² | - |
| 1777038049 | 9.44° C | 44% | 1012.5 hPa | 0 mm | - | 218 W/m² | - |
| 1777037745 | 8.89° C | 46% | 1012.5 hPa | 0 mm | - | 197 W/m² | - |
| 1777037441 | 9.44° C | 48% | 1012.3 hPa | 0 mm | - | 214 W/m² | - |
| 1777037139 | 10° C | 45% | 1012.2 hPa | 0 mm | - | 191 W/m² | - |
| 1777036836 | 9.44° C | 42% | 1012.3 hPa | 0 mm | - | 143 W/m² | - |
| 1777036533 | 9.44° C | 44% | 1012.2 hPa | 0 mm | - | 96 W/m² | - |
| 1777036232 | 8.89° C | 45% | 1012.2 hPa | 0 mm | - | 118 W/m² | - |
| 1777035930 | 8.89° C | 44% | 1012.3 hPa | 0 mm | - | 96 W/m² | - |
| 1777035630 | 9.44° C | 45% | 1012.5 hPa | 0 mm | - | 115 W/m² | - |
| 1777035325 | 9.44° C | 45% | 1012.5 hPa | 0 mm | - | 157 W/m² | - |
| 1777035021 | 9.44° C | 46% | 1012.2 hPa | 0 mm | - | 116 W/m² | - |
| 1777034718 | 9.44° C | 46% | 1012 hPa | 0 mm | - | 109 W/m² | - |
| 1777034415 | 9.44° C | 48% | 1012.1 hPa | 0 mm | - | 128 W/m² | - |
| 1777034112 | 9.44° C | 46% | 1012.2 hPa | 0 mm | - | 82 W/m² | - |
| 1777033811 | 10° C | 47% | 1012.4 hPa | 0 mm | - | 108 W/m² | - |
| 1777033509 | 10° C | 48% | 1012 hPa | 0 mm | - | 99 W/m² | - |
| 1777033206 | 10° C | 47% | 1012.2 hPa | 0 mm | - | 96 W/m² | - |
| 1777032902 | 10° C | 49% | 1012.1 hPa | 0 mm | - | 101 W/m² | - |
| 1777032598 | 9.44° C | 48% | 1012.1 hPa | 0 mm | - | 81 W/m² | - |
| 1777032293 | 9.44° C | 48% | 1011.9 hPa | 0 mm | - | 86 W/m² | - |
| 1777031989 | 9.44° C | 48% | 1012 hPa | 0 mm | - | 100 W/m² | - |
* Rain latest hour (hover to see other rain measurements)
** Current wind speed in m/s (hover to see current wind gust speed)